Location: Isles
(48.9125°N, 2.8272°E)
Time: 14:52:34
(UTC+00:00)

ATLAS 5 CENTAUR R/B - Pass Details

Date: 03 February 2023
Orbit: 460 x 1178 km, 63.3° (Epoch: 24 March)

Event Time Altitude Azimuth Distance (km) Brightness Sun altitude
Rises 18:32:03 0° 302° (WNW) 2,710 5.7 -17.1°
Reaches altitude 10° 18:35:12 10° 330° (NNW) 1,939 4.4 -17.6°
Maximum altitude 18:37:24 14° 1° (N) 1,808 3.9 -18.0°
Enters shadow 18:39:08 12° 23° (NNE) 2,006 3.9 -18.3°
